Regional Weather Roundup
Issued by NWS

Home | Current Version | Previous Version | Graphics & Text | Print | Product List | Glossary On
Versions: 1 2 3 4 5 6 7 8 9 10 11 12 13 14 15 16 17 18 19 20 21 22 23 24 25 26 27
000
ASUS45 KBOU 160807
RWRCO

WEATHER ROUNDUP FOR COLORADO
NATIONAL WEATHER SERVICE DENVER/BOULDER CO
200 AM MDT MON OCT 16 2017

NOTE: "FAIR" INDICATES FEW OR NO CLOUDS BELOW 12000 FEET WITH NO
SIGNIFICANT WEATHER AND/OR OBSTRUCTIONS TO VISIBILITY.

COZ001>005-013-030-031-160900-
...NORTHWEST COLORADO...

CITY           SKY/WX    TMP DP  RH WIND       PRES   REMARKS
CRAIG          FAIR      23  17  78 SW3       30.48S
HAYDEN         FAIR      34  16  47 E9        30.49S WCI  27
MEEKER         FAIR      32  16  51 CALM      30.49R
RABBIT EARS PA FAIR      36   5  27 W7        30.60F
STEAMBOAT SPGS FAIR      29  15  56 CALM      30.50S
WALDEN         FAIR      30  12  47 SE6       30.51F WCI  24
$$

COZ006>008-011-160900-
...WEST CENTRAL VALLEYS...

CITY           SKY/WX    TMP DP  RH WIND       PRES   REMARKS
GRAND JUNCTION FAIR      38  13  35 E3        30.46R
MONTROSE       FAIR      31  16  54 SE8       30.51S WCI  23
EAGLE          FAIR      29  19  66 SE5       30.55S WCI  24
RIFLE          FAIR      32  18  56 CALM      30.50R
DELTA          FAIR      35  14  42 NE5       30.49S WCI  31
NUCLA          NOT AVBL
$$

COZ017>023-064>068-160900-
...SOUTHWEST COLORADO...

CITY           SKY/WX    TMP DP  RH WIND       PRES   REMARKS
DURANGO        FAIR      30  13  49 CALM      30.52S
CORTEZ         FAIR      25  16  68 NE6       30.49F WCI  18
PAGOSA SPRINGS FAIR      31  13  47 CALM      30.57F
TELLURIDE      NOT AVBL
WOLF CREEK PAS FAIR      36   3  25 SW10      30.79S
$$

COZ009-010-012-014-032>034-037-058>063-160900-
...CENTRAL COLORADO...

CITY           SKY/WX    TMP DP  RH WIND       PRES   REMARKS
ASPEN          FAIR      32  13  45 SW7       30.53F WCI  26
BUENA VISTA    FAIR      30  13  48 CALM      30.55S
COPPER MTN     FAIR      37  -9  13 W8        30.69S
BERTHOUD PASS  FAIR      30  19  64 NW31G46   30.64F WCI  15
COTTONWOOD PAS FAIR      48  -8   9 NW3       30.60F
GUNNISON       FAIR      21  13  71 CALM      30.60S
KREMMLING      FAIR      27  21  80 CALM      30.56S
LEADVILLE      FAIR      34  -1  22 NE8       30.59F WCI  27
MONARCH PASS   FAIR      32   1  27 SW24      30.80S WCI  19
SALIDA         NOT AVBL
SUNLIGHT       FAIR      36  -4  18 SW8G17    30.68S
WILKERSON PASS FAIR      37  -8  14 W7        30.67F
$$

COZ069>075-160900-
...SAN LUIS VALLEY/SANGRE DE CRISTO MOUNTAINS...

CITY           SKY/WX    TMP DP  RH WIND       PRES   REMARKS
ALAMOSA        FAIR      23  13  65 SW3       30.55R
DEL NORTE      FAIR      37   9  31 W12       30.57S
LA VETA PASS   FAIR      37  12  35 MISG      30.72S
SAGUACHE       FAIR      32   9  37 N12       30.57R WCI  23
$$

COZ035-036-038>040-160900-
...NORTHERN COLORADO FRONT RANGE...

CITY           SKY/WX    TMP DP  RH WIND       PRES   REMARKS
DENVER INTL AP FAIR      40  25  55 SW8       30.37F
DMNS CITY PARK   N/A     41  26  55 SE7       30.38F
AURORA         CLEAR     38  24  55 S9        30.39F
FRONT RANGE AP FAIR      37  28  70 S10       30.39S
ERIE MUNI ARPT FAIR      33  29  84 CALM      30.42F
BOULDER MUN AP FAIR      41  25  52 S3        30.37S
CENTENNIAL     FAIR      40  22  48 S6        30.39F
BROOMFIELD     FAIR      43  25  49 SW3       30.38F
FORT COLLINS   FAIR      37  29  72 NE5       30.36F
LONGMONT       FAIR      37  29  72 CALM      30.38F
$$

COZ041-046-047-076>085-087-088-160900-
...PIKES PEAK/PALMER DIVIDE AND SOUTHERN FOOTHILLS...

CITY           SKY/WX    TMP DP  RH WIND       PRES   REMARKS
COLO. SPRINGS  FAIR      34  22  61 N8        30.44F WCI  27
A. F. ACADEMY  FAIR      32  19  60 N13       30.44F WCI  22
SCHRIEVER AFB  FAIR      39  21  48 MISG      30.44F
CHEYENNE MTN   FAIR      48  11  22 CALM      30.39F
ELLICOTT       FAIR     N/A N/A N/A CALM      30.42F
FALCON         FAIR      36  19  50 N5        30.46F
FORT CARSON    FAIR      37  20  50 NW8       30.42F
LIMON          FAIR      25  23  92 N7        30.40F WCI  17
MONUMENT HILL  FAIR      36  19  51 SW9       30.46S
CANON CITY     CLEAR     45  25  45 W12       30.41F
WALSENBURG     FAIR      36  25  64 CALM      30.44F
TRINIDAD       FAIR      38  28  67 NW8       30.44S
$$

COZ042>045-048>051-090-091-160900-
...NORTHEAST COLORADO...

CITY           SKY/WX    TMP DP  RH WIND       PRES   REMARKS
GREELEY ARPT   FAIR      31  27  85 CALM      30.37F
AKRON          FAIR      45  24  43 SW13      30.34F
BURLINGTON     FAIR      37  27  67 SW7       30.37F
WRAY           FAIR      39  30  70 W8        30.35F
YUMA           NOT AVBL
STERLING       FAIR      34  28  80 SW7       30.33F WCI  28
HOLYOKE        FAIR      34  30  86 CALM      30.34F
FORT MORGAN    FAIR      32  23  69 W8        30.36S WCI  24
$$

COZ086-089-092>099-160900-
...SOUTHEAST COLORADO...

CITY           SKY/WX    TMP DP  RH WIND       PRES   REMARKS
PUEBLO         FAIR      35  25  66 NW3       30.41S
LA JUNTA       FAIR      38  32  79 W8        30.39S
LAMAR          FAIR      31  25  78 CALM      30.37S
SPRINGFIELD      N/A     32  29  88 SW9       30.40F WCI  24
$$




USA.gov is the U.S. government's official web portal to all federal, state and local government web resources and services.